sat.trackr.live / text

‹ back to catalog

STARLINK-37784

NORAD 69657 · 2026-143J

PAYLOAD ACTIVE UNKNOWN

§ Identity

Operator
Country
US
Launch date
2026-06-21
Launch site
AFWTR
Launch vehicle
Mass (kg)
RCS (m²)

Purposes: comms

External: N2YO · Heavens-Above · Gunter

§ Orbital elements

Epoch: 2026-09-20T02:11:15.529344Z

Period
93.91 min
Inclination
97.2853°
Eccentricity
0.0001598
Mean motion
15.33426199 rev/d
Perigee alt
464.5 km
Apogee alt
466.7 km
Semi-major
6,843.7 km
B*
3.1835e-4
RAAN
306.3408°
Arg perigee
94.3634°
Mean anomaly
265.7791°
Rev number
1,508

§ Raw data

STARLINK-377841 69657U 26143J   26263.09115196  .00010211  00000+0  31835-3 0  99972 69657  97.2853 306.3408 0001598  94.3634 265.7791 15.33426199 15089

JSON: /api/v1/satellites/69657 · /tle

For live sub-satellite position, see the globe view (requires WebGL).

§ Visibility from observer

Set your observer location to see the next 7 days of passes ≥ 10°. The values pass through the URL so the page stays shareable.

No JS? Fill the form by hand. The geolocation button needs JavaScript.